TimeMST,TemperatureF,Dew PointF,Humidity,Sea Level PressureIn,VisibilityMPH,Wind Direction,Wind SpeedMPH,Gust SpeedMPH,PrecipitationIn,Events,Conditions,WindDirDegrees,DateUTC
12:56 AM,-2.9,-7.1,82,30.55,-9999.0,Calm,Calm,-,N/A,,Unknown,0,2013-01-22 07:56:00
1:56 AM,-5.1,-9.9,80,30.51,-9999.0,Calm,Calm,-,N/A,,Unknown,0,2013-01-22 08:56:00
2:56 AM,-7.1,-11.0,83,30.51,-9999.0,Calm,Calm,-,N/A,,Unknown,0,2013-01-22 09:56:00
3:56 AM,-8.0,-13.0,79,30.53,-9999.0,Calm,Calm,-,N/A,,Unknown,0,2013-01-22 10:56:00
4:56 AM,-7.1,-11.9,79,30.54,-9999.0,Calm,Calm,-,N/A,,Unknown,0,2013-01-22 11:56:00
5:56 AM,-9.0,-15.0,75,30.60,-9999.0,Calm,Calm,-,N/A,,Unknown,0,2013-01-22 12:56:00
6:56 AM,-11.0,-17.0,75,30.66,-9999.0,Calm,Calm,-,N/A,,Unknown,0,2013-01-22 13:56:00
7:56 AM,-11.0,-16.1,78,30.70,-9999.0,Calm,Calm,-,N/A,,Unknown,0,2013-01-22 14:56:00
8:56 AM,-6.0,-9.0,87,30.70,-9999.0,Calm,Calm,-,N/A,,Unknown,0,2013-01-22 15:56:00
9:56 AM,1.0,-2.9,83,30.65,-9999.0,Calm,Calm,-,N/A,,Unknown,0,2013-01-22 16:56:00
10:56 AM,5.0,-0.9,76,30.67,-9999.0,Calm,Calm,-,N/A,,Unknown,0,2013-01-22 17:56:00
11:56 AM,10.0,1.0,67,30.63,-9999.0,Calm,Calm,-,N/A,,Unknown,0,2013-01-22 18:56:00
12:56 PM,19.0,3.9,52,30.57,-9999.0,Calm,Calm,-,N/A,,Unknown,0,2013-01-22 19:56:00
1:56 PM,18.0,3.0,52,30.57,-9999.0,Calm,Calm,-,N/A,,Unknown,0,2013-01-22 20:56:00
2:56 PM,19.9,5.0,52,30.57,-9999.0,Calm,Calm,-,N/A,,Unknown,0,2013-01-22 21:56:00
3:56 PM,21.9,12.0,66,30.57,-9999.0,Calm,Calm,-,N/A,,Unknown,0,2013-01-22 22:56:00
4:56 PM,16.0,10.0,77,30.58,-9999.0,Calm,Calm,-,N/A,,Unknown,0,2013-01-22 23:56:00
5:56 PM,10.9,7.0,84,30.63,-9999.0,Calm,Calm,-,N/A,,Unknown,0,2013-01-23 00:56:00
6:56 PM,9.0,5.0,84,30.67,-9999.0,Calm,Calm,-,N/A,,Unknown,0,2013-01-23 01:56:00
7:56 PM,6.1,3.0,87,30.69,-9999.0,Calm,Calm,-,N/A,,Unknown,0,2013-01-23 02:56:00
8:56 PM,3.9,1.0,88,30.66,-9999.0,Calm,Calm,-,N/A,,Unknown,0,2013-01-23 03:56:00
9:56 PM,3.0,-0.0,87,30.63,-9999.0,Calm,Calm,-,N/A,,Unknown,0,2013-01-23 04:56:00
10:56 PM,3.9,-0.0,84,30.60,-9999.0,Calm,Calm,-,N/A,,Unknown,0,2013-01-23 05:56:00
11:56 PM,3.0,-0.0,87,30.57,-9999.0,Calm,Calm,-,N/A,,Unknown,0,2013-01-23 06:56:00